Home > Weather > Richmond > Past weeks

Flag for Canada Past Weather in Richmond, British Columbia, Canada — Yesterday and Last 2 Weeks

Now
68 °F

Passing clouds.


Feels Like: 68 °F
Forecast: 62 / 78 °F
Wind: 7 mph from Northeast

Location: Vancouver International Airport

Current Time: Jul 28, 2016 at 1:55:53 AM

Latest Report: Jul 28, 2016 at 1:00 AM


Visibility: 30 mi

Pressure: 30.08 "Hg

Humidity: 83%

Dew Point: 63 °F

Location of RichmondLocation

Past Weather in Richmond — Graph

°F

Richmond Temperature Yesterday

Maximum temperature yesterday: 75 °F (at 3:00 PM)
Minimum temperature yesterday: 59 °F (at 5:00 AM)
Average temperature yesterday: 68 °F

High & Low Weather Summary for the Past Weeks

 TemperatureHumidityPressure
High75 °F (Jul 18, 4:00 PM)100% (Jul 13, 2:47 AM)30.26 "Hg (Jul 13, 2:47 AM)
Low57 °F (Jul 14, 2:00 AM)47% (Jul 22, 3:00 PM)29.90 "Hg (Jul 17, 5:00 PM)
Average66 °F76%30.09 "Hg
* Reported Jul 13 12:00 AM — Jul 28 12:00 AM, Richmond, Weather by CustomWeather, © 2016

Note: Actual official high and low records may vary slightly from our data, if they occured in-between our weather recording intervals... More about our weather records

Advertising

Richmond Weather History for the Previous 24 Hours

Scroll right to see more
 ConditionsComfort  
Time TempWeatherWind HumidityBarometerVisibility
12:00 AM
Thu, Jul 28
68 °FPassing clouds.8 mph88%30.08 "Hg30 mi
11:00 PM
Wed, Jul 27
68 °FClear.9 mph83%30.08 "Hg30 mi
10:00 PM68 °FClear.2 mph78%30.07 "Hg30 mi
9:00 PM70 °FSunny.5 mph78%30.05 "Hg30 mi
8:00 PM72 °FSunny.8 mph73%30.04 "Hg30 mi
7:00 PM73 °FPassing clouds.9 mph69%30.04 "Hg30 mi
6:00 PM73 °FSunny.10 mph69%30.06 "Hg30 mi
5:00 PM75 °FPassing clouds.10 mph69%30.07 "Hg30 mi
4:00 PM75 °FPassing clouds.13 mph69%30.07 "Hg30 mi
3:00 PM75 °FSunny.12 mph69%30.09 "Hg30 mi
2:00 PM72 °FSunny.14 mph73%30.11 "Hg30 mi
1:00 PM72 °FSunny.14 mph73%30.12 "Hg30 mi
12:00 PM72 °FSunny.15 mph73%30.13 "Hg30 mi
11:00 AM72 °FSunny.14 mph73%30.14 "Hg30 mi
10:00 AM70 °FSunny.15 mph73%30.14 "Hg30 mi
9:00 AM68 °FPassing clouds.16 mph78%30.14 "Hg30 mi
8:00 AM66 °FPartly sunny.13 mph83%30.14 "Hg15 mi
7:58 AM66 °FPartly sunny.12 mph83%30.14 "Hg15 mi
7:00 AM63 °FPassing clouds.5 mph83%30.13 "Hg30 mi
6:00 AM61 °FPassing clouds.6 mph88%30.12 "Hg20 mi
5:00 AM59 °FClear.9 mph88%30.11 "Hg30 mi
4:00 AM61 °FClear.7 mph83%30.10 "Hg30 mi
3:00 AM61 °FClear.6 mph83%30.09 "Hg30 mi
2:00 AM61 °FClear.5 mph83%30.09 "Hg30 mi
1:00 AM63 °FClear.5 mph83%30.09 "Hg30 mi
Weather by CustomWeather, © 2016

See weather overviewHow to use our weather pages